Overview Statistics Trail Chart Weather Telemetry Raw packets
 

This is the latest recevied weather packets stored in our database for station/object PU5FJO-13. If no packets are shown the sender has not sent any weather packets the latest 10 day(s).

<< 17 18 19 20 21 22 23 >>
Time Temp. Humidity Pressure Rain* Wind** Luminosity Snow
1777553168 22.78° C 66% 1019.2 hPa - - - -
1777552568 22.78° C 68% 1019.2 hPa - - - -
1777551970 22.22° C 68% 1019 hPa - - - -
1777551368 22.22° C 68% 1019 hPa - - - -
1777550768 22.22° C 69% 1018.8 hPa - - - -
1777550168 21.67° C 71% 1018.7 hPa - - - -
1777549568 21.67° C 73% 1018.4 hPa - - - -
1777548968 21.67° C 73% 1018.4 hPa - - - -
1777548368 21.11° C 75% 1018.2 hPa - - - -
1777547768 21.11° C 74% 1018.2 hPa - - - -
1777547168 21.11° C 75% 1018.1 hPa - - - -
1777546568 20.56° C 78% 1018 hPa - - - -
1777545968 20° C 79% 1017.9 hPa - - - -
1777545368 20° C 80% 1017.7 hPa - - - -
1777544768 19.44° C 81% 1017.6 hPa - - - -
1777544168 19.44° C 81% 1017.5 hPa - - - -
1777543568 18.89° C 82% 1017.5 hPa - - - -
1777542968 19.44° C 82% 1017.4 hPa - - - -
1777542368 19.44° C 82% 1017.2 hPa - - - -
1777541768 18.89° C 83% 1017.1 hPa - - - -
1777541168 18.89° C 82% 1016.9 hPa - - - -
1777540568 18.89° C 82% 1016.9 hPa - - - -
1777539968 18.89° C 82% 1016.8 hPa - - - -
1777539368 18.89° C 82% 1016.8 hPa - - - -
1777538768 18.89° C 82% 1016.7 hPa - - - -

* Rain since midnight (hover to see other rain measurements)
** Current wind speed in m/s (hover to see current wind gust speed)